| time (UTC) | temp F | wind direction | speed knots | gust knots | rain 1hr in | rain 24hr in | rain mn in | humidity % | barometer mb |
| 20260506114030 | 57 | 80 | 6.1 | 12.2 | 0.00 | 0.00 | 0.00 | 34 | 1011.6 |
| 20260506112931 | 57 | 77 | 4.3 | 7.0 | 0.00 | 0.00 | 0.00 | 34 | 1011.7 |
| 20260506111831 | 57 | 139 | 5.2 | 8.7 | 0.00 | 0.00 | 0.00 | 35 | 1011.8 |
| 20260506110730 | 57 | 43 | 5.2 | 7.8 | 0.00 | 0.00 | 0.00 | 34 | 1011.7 |
| 20260506104529 | 56 | 119 | 6.1 | 9.6 | 0.00 | 0.00 | 0.00 | 35 | 1011.9 |
| 20260506102329 | 56 | 80 | 7.8 | 12.2 | 0.00 | 0.00 | 0.00 | 33 | 1011.9 |
| 20260506101229 | 56 | 138 | 6.1 | 12.2 | 0.00 | 0.00 | 0.00 | 34 | 1011.9 |
| 20260506100129 | 56 | 155 | 6.1 | 8.7 | 0.00 | 0.00 | 0.00 | 35 | 1011.9 |
| 20260506095029 | 56 | 157 | 6.1 | 8.7 | 0.00 | 0.00 | 0.00 | 35 | 1012.1 |
| 20260506093929 | 55 | 92 | 7.8 | 11.3 | 0.00 | 0.00 | 0.00 | 35 | 1012.1 |
| 20260506092829 | 55 | 128 | 7.8 | 11.3 | 0.00 | 0.00 | 0.00 | 34 | 1012.1 |
| 20260506091729 | 54 | 76 | 7.0 | 14.8 | 0.00 | 0.00 | 0.00 | 34 | 1012.2 |
| 20260506090629 | 54 | 55 | 7.0 | 9.6 | 0.00 | 0.00 | 0.00 | 37 | 1012.2 |
| 20260506085530 | 54 | 84 | 8.7 | 13.0 | 0.00 | 0.00 | 0.00 | 35 | 1012.3 |
| 20260506084429 | 54 | 117 | 6.1 | 8.7 | 0.00 | 0.00 | 0.00 | 35 | 1012.2 |
| 20260506082230 | 53 | 114 | 7.8 | 10.4 | 0.00 | 0.00 | 0.00 | 34 | 1012.4 |
| 20260506081129 | 53 | 129 | 9.6 | 9.6 | 0.00 | 0.00 | 0.00 | 33 | 1012.3 |
| 20260506072728 | 54 | 88 | 11.3 | 14.8 | 0.00 | 0.00 | 0.00 | 30 | 1012.6 |
| 20260506071630 | 53 | 59 | 10.4 | 17.4 | 0.00 | 0.00 | 0.00 | 30 | 1012.6 |
| 20260506062129 | 50 | 82 | 11.3 | 14.8 | 0.00 | 0.00 | 0.00 | 33 | 1013.0 |
| 20260506061029 | 49 | 70 | 8.7 | 10.4 | 0.00 | 0.00 | 0.00 | 38 | 1012.9 |
| 20260506044227 | 36 | 11 | 0.9 | 1.7 | 0.00 | 0.00 | 0.00 | 82 | 1013.0 |
| 20260506043127 | 34 | 332 | 1.7 | 2.6 | 0.00 | 0.00 | 0.00 | 81 | 1012.7 |
| 20260506042027 | 33 | 2 | 2.6 | 3.5 | 0.00 | 0.00 | 0.00 | 80 | 1012.8 |
| 20260506040927 | 33 | 348 | 1.7 | 3.5 | 0.00 | 0.00 | 0.00 | 79 | 1012.6 |
| 20260506035827 | 32 | 1 | 0.9 | 1.7 | 0.00 | 0.00 | 0.00 | 78 | 1012.5 |
| 20260506034727 | 33 | 1 | 0.0 | 1.7 | 0.00 | 0.00 | 0.00 | 78 | 1012.5 |
| 20260506033627 | 32 | 1 | 0.0 | 1.7 | 0.00 | 0.00 | 0.00 | 78 | 1012.8 |
| 20260506032528 | 32 | 1 | 0.0 | 0.9 | 0.00 | 0.00 | 0.00 | 78 | 1012.8 |
| 20260506031427 | 32 | 1 | 0.0 | 1.7 | 0.00 | 0.00 | 0.00 | 77 | 1012.6 |
| 20260506030327 | 32 | 0 | 0.0 | 0.0 | 0.00 | 0.00 | 0.00 | 77 | 1012.5 |
| 20260506025227 | 32 | 1 | 0.9 | 1.7 | 0.00 | 0.00 | 0.00 | 76 | 1012.7 |
| 20260506024128 | 32 | 0 | 0.0 | 0.0 | 0.00 | 0.00 | 0.00 | 76 | 1012.7 |
| 20260506023028 | 32 | 0 | 0.0 | 0.0 | 0.00 | 0.00 | 0.00 | 75 | 1012.8 |
| 20260506021927 | 32 | 0 | 0.0 | 0.0 | 0.00 | 0.00 | 0.00 | 75 | 1012.5 |
| 20260506020826 | 33 | 135 | 0.0 | 1.7 | 0.00 | 0.00 | 0.00 | 75 | 1012.7 |
| 20260506015727 | 33 | 0 | 0.0 | 0.0 | 0.00 | 0.00 | 0.00 | 74 | 1012.6 |
| 20260506014626 | 33 | 110 | 0.0 | 1.7 | 0.00 | 0.00 | 0.00 | 74 | 1012.5 |
| 20260506013526 | 33 | 46 | 0.0 | 1.7 | 0.00 | 0.00 | 0.00 | 73 | 1012.5 |
| 20260506012426 | 33 | 46 | 0.0 | 1.7 | 0.00 | 0.00 | 0.00 | 72 | 1012.6 |
| 20260506011326 | 34 | 0 | 0.0 | 0.0 | 0.00 | 0.00 | 0.00 | 72 | 1012.5 |
| 20260506010226 | 34 | 0 | 0.0 | 0.0 | 0.00 | 0.00 | 0.00 | 71 | 1012.3 |
| 20260506004027 | 34 | 0 | 0.0 | 0.0 | 0.00 | 0.00 | 0.00 | 70 | 1012.1 |
| 20260506002928 | 34 | 90 | 0.0 | 0.9 | 0.00 | 0.00 | 0.00 | 70 | 1012.1 |
| 20260506001826 | 35 | 0 | 0.0 | 0.0 | 0.00 | 0.00 | 0.00 | 70 | 1012.2 |
| 20260506000727 | 35 | 90 | 0.0 | 0.9 | 0.00 | 0.00 | 0.00 | 70 | 1012.1 |
| 20260505235627 | 35 | 90 | 0.0 | 0.9 | 0.00 | 0.00 | 0.00 | 70 | 1012.1 |
| 20260505234527 | 35 | 90 | 0.0 | 0.9 | 0.00 | 0.00 | 0.00 | 69 | 1012.1 |
| 20260505231226 | 36 | 0 | 0.0 | 0.0 | 0.00 | 0.00 | 0.00 | 66 | 1012.4 |
| 20260505230127 | 36 | 0 | 0.0 | 0.0 | 0.00 | 0.00 | 0.00 | 65 | 1012.1 |
| 20260505225027 | 37 | 0 | 0.0 | 0.0 | 0.00 | 0.00 | 0.00 | 65 | 1012.2 |
| 20260505223926 | 37 | 135 | 0.0 | 0.9 | 0.00 | 0.00 | 0.00 | 64 | 1012.4 |
| 20260505222826 | 38 | 0 | 0.0 | 0.0 | 0.00 | 0.00 | 0.00 | 64 | 1012.5 |
| 20260505220626 | 39 | 0 | 0.0 | 0.0 | 0.00 | 0.00 | 0.00 | 63 | 1012.3 |
| 20260505215525 | 40 | 135 | 0.0 | 0.9 | 0.00 | 0.00 | 0.00 | 62 | 1012.4 |
| 20260505213326 | 41 | 0 | 0.0 | 0.0 | 0.00 | 0.00 | 0.00 | 61 | 1012.2 |
| 20260505212225 | 41 | 135 | 0.0 | 0.9 | 0.00 | 0.00 | 0.00 | 60 | 1012.1 |
| 20260505211125 | 42 | 0 | 0.0 | 0.0 | 0.00 | 0.00 | 0.00 | 60 | 1012.1 |
| 20260505204925 | 43 | 135 | 0.0 | 0.9 | 0.00 | 0.00 | 0.00 | 56 | 1011.8 |
| 20260505203825 | 44 | 10 | 0.9 | 1.7 | 0.00 | 0.00 | 0.00 | 54 | 1011.8 |
| 20260505202726 | 45 | 355 | 0.9 | 1.7 | 0.00 | 0.00 | 0.00 | 52 | 1011.6 |
| 20260505201625 | 46 | 287 | 1.7 | 1.7 | 0.00 | 0.00 | 0.00 | 44 | 1011.7 |
| 20260505200526 | 48 | 266 | 1.7 | 2.6 | 0.00 | 0.00 | 0.00 | 41 | 1011.5 |
| 20260505195426 | 48 | 317 | 1.7 | 3.5 | 0.00 | 0.00 | 0.00 | 40 | 1011.5 |
| 20260505192125 | 50 | 311 | 3.5 | 4.3 | 0.00 | 0.00 | 0.00 | 35 | 1011.3 |
| 20260505191025 | 50 | 310 | 3.5 | 3.5 | 0.00 | 0.00 | 0.00 | 34 | 1011.0 |
| 20260505183725 | 52 | 300 | 2.6 | 7.8 | 0.00 | 0.00 | 0.00 | 30 | 1010.9 |
| 20260505182625 | 53 | 314 | 4.3 | 6.1 | 0.00 | 0.00 | 0.00 | 30 | 1010.8 |
| 20260505181524 | 53 | 306 | 5.2 | 7.0 | 0.00 | 0.00 | 0.00 | 30 | 1010.8 |
| 20260505180424 | 54 | 312 | 7.0 | 9.6 | 0.00 | 0.00 | 0.00 | 30 | 1010.8 |
| 20260505175326 | 54 | 295 | 6.1 | 9.6 | 0.00 | 0.00 | 0.00 | 26 | 1010.8 |
| 20260505174224 | 54 | 305 | 7.0 | 10.4 | 0.00 | 0.00 | 0.00 | 22 | 1010.5 |
| 20260505172024 | 55 | 298 | 6.1 | 7.0 | 0.00 | 0.00 | 0.00 | 22 | 1010.7 |
| 20260505170926 | 56 | 266 | 7.8 | 9.6 | 0.00 | 0.00 | 0.00 | 22 | 1010.6 |
| 20260505164724 | 56 | 238 | 5.2 | 9.6 | 0.00 | 0.00 | 0.00 | 20 | 1010.5 |
| 20260505161424 | 57 | 262 | 7.8 | 14.8 | 0.00 | 0.00 | 0.00 | 20 | 1010.0 |
| 20260505160325 | 58 | 292 | 7.0 | 9.6 | 0.00 | 0.00 | 0.00 | 20 | 1010.1 |
| 20260505153024 | 58 | 295 | 5.2 | 8.7 | 0.00 | 0.00 | 0.00 | 20 | 1010.1 |
| 20260505151924 | 58 | 197 | 4.3 | 8.7 | 0.00 | 0.00 | 0.00 | 20 | 1010.0 |
| 20260505140225 | 58 | 341 | 8.7 | 13.9 | 0.00 | 0.00 | 0.00 | 20 | 1010.2 |
| 20260505124523 | 58 | 295 | 5.2 | 7.0 | 0.00 | 0.00 | 0.00 | 22 | 1010.2 |
| 20260505123423 | 57 | 266 | 8.7 | 13.0 | 0.00 | 0.00 | 0.00 | 22 | 1010.2 |
| 20260505122323 | 57 | 263 | 6.1 | 9.6 | 0.00 | 0.00 | 0.00 | 22 | 1010.2 |
| 20260505121224 | 57 | 211 | 6.1 | 8.7 | 0.00 | 0.00 | 0.00 | 22 | 1010.4 |
| 20260505120123 | 57 | 307 | 7.8 | 13.0 | 0.00 | 0.00 | 0.00 | 22 | 1010.5 |
| 20260505115024 | 57 | 210 | 6.1 | 9.6 | 0.00 | 0.00 | 0.00 | 24 | 1010.6 |